TimeCST,TemperatureF,Dew PointF,Humidity,Sea Level PressureIn,VisibilityMPH,Wind Direction,Wind SpeedMPH,Gust SpeedMPH,PrecipitationIn,Events,Conditions,WindDirDegrees,DateUTC
12:52 AM,14.0,12.0,92,30.17,10.0,SE,3.5,-,N/A,,Partly Cloudy,130,2013-02-17 06:52:00
1:52 AM,15.1,12.0,88,30.17,10.0,SE,4.6,-,N/A,,Overcast,130,2013-02-17 07:52:00
2:52 AM,12.9,10.0,88,30.17,10.0,ESE,4.6,-,N/A,,Clear,110,2013-02-17 08:52:00
3:52 AM,12.0,9.0,88,30.17,10.0,ESE,4.6,-,N/A,,Clear,110,2013-02-17 09:52:00
4:52 AM,10.9,9.0,92,30.17,10.0,ESE,5.8,-,N/A,,Clear,120,2013-02-17 10:52:00
5:52 AM,12.0,10.0,92,30.17,10.0,ESE,8.1,-,N/A,,Clear,110,2013-02-17 11:52:00
6:52 AM,12.9,10.0,88,30.15,10.0,ESE,6.9,-,N/A,,Clear,120,2013-02-17 12:52:00
7:52 AM,15.8,12.2,86,30.10,10.0,SE,10.4,-,N/A,,Clear,140,2013-02-17 13:52:00
8:52 AM,19.9,15.1,81,30.14,10.0,SSE,13.8,-,N/A,,Clear,150,2013-02-17 14:52:00
9:52 AM,21.9,16.0,78,30.14,10.0,SSE,12.7,-,N/A,,Clear,150,2013-02-17 15:52:00
10:52 AM,26.1,18.0,71,30.13,10.0,SSE,12.7,-,N/A,,Mostly Cloudy,150,2013-02-17 16:52:00
11:52 AM,30.0,19.0,64,30.10,10.0,SE,10.4,-,N/A,,Clear,140,2013-02-17 17:52:00
12:52 PM,33.1,19.9,59,30.05,10.0,SSE,15.0,23.0,N/A,,Clear,150,2013-02-17 18:52:00
1:52 PM,35.1,21.9,59,30.01,10.0,SSE,13.8,23.0,N/A,,Clear,160,2013-02-17 19:52:00
2:52 PM,37.0,21.9,54,29.97,10.0,SE,16.1,24.2,N/A,,Clear,130,2013-02-17 20:52:00
3:52 PM,37.0,21.9,54,29.95,10.0,SE,16.1,24.2,N/A,,Clear,140,2013-02-17 21:52:00
4:52 PM,35.1,21.9,59,29.94,10.0,SSE,16.1,24.2,N/A,,Clear,150,2013-02-17 22:52:00
5:52 PM,34.0,21.9,61,29.92,10.0,SE,12.7,-,N/A,,Clear,140,2013-02-17 23:52:00
6:52 PM,33.1,21.9,64,29.90,10.0,SE,15.0,20.7,N/A,,Clear,130,2013-02-18 00:52:00
7:52 PM,33.1,23.0,66,29.88,10.0,SE,15.0,23.0,N/A,,Clear,140,2013-02-18 01:52:00
8:52 PM,33.1,23.0,66,29.86,10.0,SE,18.4,25.3,N/A,,Clear,140,2013-02-18 02:52:00
9:52 PM,33.1,23.0,66,29.83,10.0,SSE,18.4,26.5,N/A,,Clear,150,2013-02-18 03:52:00
11:52 PM,33.1,24.1,70,29.77,10.0,SSE,17.3,26.5,N/A,,Clear,150,2013-02-18 05:52:00